QPF
0.02 0.02 0.02 0.02 0.02 0.02 0.02 0.03 0.03 0.04 0.04 0.03 0.02 0.02 0.02 0.02 0.01 0.00 0.00 0.00 0.00 0.00 0.00 0.01 0.01 0.01 0.01 0.01 0.01 0.02 0.01 0.01 0.01 0.01 0.01 0.01 0.01 0.01 0.02 0.03 0.04 0.04 0.04
0.02 0.02 0.02 0.02 0.02 0.02 0.02 0.02 0.02 0.03 0.03 0.03 0.02 0.02 0.02 0.01 0.01 0.01 0.00 0.00 0.00 0.00 0.00 0.01 0.01 0.02 0.01 0.01 0.01 0.02 0.02 0.02 0.02 0.01 0.01 0.01 0.01 0.01 0.01 0.03 0.03 0.03 0.04
0.03 0.03 0.03 0.03 0.04 0.03 0.02 0.02 0.02 0.02 0.02 0.02 0.02 0.02 0.01 0.01 0.01 0.01 0.01 0.00 0.00 0.00 0.00 0.01 0.01 0.02 0.02 0.02 0.02 0.02 0.02 0.02 0.02 0.02 0.02 0.01 0.01 0.01 0.01 0.02 0.03 0.04 0.03
0.03 0.03 0.03 0.04 0.04 0.04 0.03 0.02 0.01 0.01 0.01 0.02 0.02 0.02 0.02 0.01 0.01 0.01 0.00 0.00 0.01 0.00 0.00 0.00 0.01 0.01 0.02 0.02 0.02 0.01 0.01 0.01 0.02 0.02 0.02 0.02 0.02 0.01 0.01 0.01 0.02 0.04 0.04
0.02 0.02 0.03 0.03 0.04 0.05 0.05 0.03 0.02 0.01 0.01 0.01 0.01 0.01 0.02 0.01 0.01 0.01 0.01 0.00 0.00 0.01 0.01 0.01 0.01 0.01 0.01 0.02 0.03 0.03 0.02 0.01 0.01 0.01 0.02 0.02 0.02 0.02 0.02 0.02 0.02 0.04 0.04
0.02 0.03 0.03 0.02 0.02 0.03 0.05 0.05 0.04 0.03 0.03 0.02 0.02 0.02 0.01 0.01 0.01 0.01 0.01 0.01 0.00 0.01 0.01 0.02 0.02 0.02 0.03 0.03 0.03 0.03 0.03 0.03 0.03 0.02 0.02 0.02 0.02 0.02 0.02 0.02 0.02 0.03 0.04
0.04 0.03 0.03 0.03 0.03 0.03 0.04 0.04 0.04 0.04 0.04 0.04 0.04 0.03 0.02 0.01 0.01 0.01 0.01 0.01 0.01 0.00 0.00 0.01 0.01 0.02 0.02 0.03 0.02 0.02 0.02 0.02 0.03 0.03 0.04 0.04 0.04 0.04 0.04 0.03 0.03 0.03 0.03
0.04 0.04 0.03 0.03 0.03 0.04 0.04 0.04 0.04 0.04 0.04 0.05 0.05 0.06 0.05 0.03 0.02 0.01 0.01 0.01 0.01 0.01 0.00 0.01 0.01 0.00 0.00 0.01 0.01 0.01 0.01 0.01 0.02 0.02 0.03 0.03 0.03 0.04 0.05 0.06 0.06 0.06 0.05
0.03 0.03 0.04 0.04 0.04 0.03 0.03 0.03 0.04 0.05 0.05 0.04 0.05 0.05 0.05 0.04 0.03 0.02 0.02 0.03 0.03 0.02 0.01 0.01 0.01 0.00 0.00 0.00 0.00 0.00 0.00 0.01 0.01 0.02 0.02 0.02 0.03 0.03 0.04 0.06 0.07 0.08 0.09
0.04 0.04 0.05 0.05 0.04 0.03 0.03 0.03 0.03 0.04 0.05 0.06 0.07 0.07 0.07 0.05 0.05 0.04 0.03 0.03 0.03 0.04 0.03 0.02 0.01 0.01 0.01 0.01 0.01 0.01 0.01 0.01 0.01 0.02 0.02 0.02 0.02 0.02 0.03 0.04 0.05 0.06 0.07
0.04 0.03 0.05 0.06 0.06 0.04 0.03 0.02 0.02 0.03 0.04 0.04 0.05 0.06 0.07 0.07 0.07 0.06 0.04 0.04 0.04 0.03 0.03 0.02 0.02 0.01 0.01 0.02 0.02 0.02 0.02 0.01 0.01 0.01 0.01 0.01 0.01 0.02 0.02 0.03 0.03 0.04 0.05
0.04 0.03 0.03 0.04 0.05 0.04 0.03 0.03 0.02 0.02 0.03 0.03 0.03 0.03 0.04 0.05 0.06 0.06 0.06 0.05 0.04 0.04 0.03 0.03 0.02 0.02 0.02 0.02 0.03 0.03 0.02 0.01 0.01 0.01 0.01 0.01 0.01 0.01 0.02 0.02 0.02 0.02 0.03
0.04 0.03 0.02 0.03 0.04 0.04 0.03 0.03 0.02 0.02 0.02 0.02 0.03 0.03 0.03 0.03 0.04 0.05 0.06 0.05 0.04 0.05 0.04 0.03 0.03 0.03 0.03 0.03 0.03 0.03 0.02 0.01 0.01 0.01 0.01 0.01 0.01 0.01 0.01 0.02 0.03 0.03 0.02
0.04 0.03 0.02 0.03 0.04 0.05 0.04 0.03 0.02 0.02 0.01 0.01 0.02 0.02 0.02 0.03 0.03 0.05 0.06 0.06 0.06 0.05 0.04 0.04 0.03 0.04 0.03 0.03 0.03 0.03 0.02 0.02 0.02 0.02 0.01 0.01 0.01 0.01 0.01 0.02 0.02 0.02 0.02
0.05 0.04 0.03 0.03 0.03 0.04 0.04 0.04 0.03 0.02 0.01 0.01 0.02 0.02 0.03 0.03 0.03 0.03 0.04 0.05 0.05 0.05 0.04 0.03 0.03 0.03 0.03 0.03 0.03 0.03 0.02 0.02 0.02 0.02 0.02 0.02 0.02 0.02 0.02 0.02 0.02 0.02 0.01
0.05 0.04 0.03 0.03 0.03 0.04 0.04 0.04 0.04 0.03 0.03 0.03 0.03 0.03 0.03 0.03 0.03 0.03 0.03 0.03 0.05 0.05 0.05 0.03 0.03 0.03 0.04 0.04 0.04 0.03 0.02 0.02 0.02 0.01 0.01 0.02 0.02 0.02 0.02 0.01 0.02 0.01 0.01
0.05 0.05 0.04 0.03 0.03 0.04 0.04 0.05 0.05 0.04 0.03 0.03 0.04 0.04 0.03 0.03 0.03 0.03 0.03 0.03 0.04 0.05 0.05 0.04 0.03 0.03 0.03 0.03 0.03 0.03 0.02 0.02 0.01 0.01 0.01 0.01 0.01 0.01 0.01 0.01 0.01 0.01 0.01
0.05 0.05 0.04 0.04 0.04 0.04 0.04 0.04 0.05 0.04 0.04 0.03 0.03 0.03 0.02 0.02 0.02 0.02 0.03 0.03 0.04 0.04 0.05 0.05 0.03 0.03 0.03 0.03 0.03 0.03 0.02 0.01 0.01 0.01 0.01 0.01 0.01 0.01 0.01 0.01 0.01 0.01 0.01
0.06 0.06 0.04 0.04 0.04 0.04 0.04 0.04 0.04 0.04 0.03 0.03 0.03 0.02 0.02 0.02 0.02 0.02 0.02 0.02 0.03 0.03 0.04 0.04 0.03 0.02 0.03 0.02 0.02 0.02 0.01 0.01 0.01 0.01 0.01 0.01 0.01 0.01 0.01 0.01 0.01 0.01 0.01
0.04 0.04 0.03 0.03 0.03 0.03 0.03 0.03 0.03 0.03 0.03 0.03 0.03 0.02 0.02 0.02 0.02 0.02 0.02 0.02 0.02 0.03 0.03 0.04 0.03 0.03 0.03 0.02 0.02 0.02 0.02 0.01 0.01 0.01 0.01 0.01 0.01 0.01 0.01 0.01 0.01 0.01 0.01
0.03 0.04 0.03 0.02 0.02 0.02 0.03 0.03 0.03 0.03 0.03 0.02 0.02 0.02 0.02 0.02 0.03 0.03 0.02 0.02 0.02 0.03 0.03 0.04 0.03 0.03 0.03 0.02 0.02 0.02 0.02 0.02 0.01 0.01 0.01 0.01 0.01 0.01 0.01 0.01 0.01 0.01 0.01
0.02 0.03 0.03 0.02 0.02 0.02 0.03 0.03 0.03 0.03 0.03 0.03 0.02 0.02 0.02 0.03 0.04 0.05 0.05 0.04 0.03 0.03 0.03 0.03 0.03 0.03 0.03 0.02 0.02 0.02 0.02 0.02 0.01 0.01 0.01 0.01 0.01 0.01 0.01 0.01 0.01 0.01 0.01
0.03 0.02 0.03 0.02 0.02 0.02 0.03 0.03 0.03 0.03 0.03 0.03 0.03 0.04 0.03 0.03 0.04 0.04 0.05 0.06 0.05 0.04 0.04 0.04 0.04 0.03 0.03 0.03 0.03 0.03 0.02 0.02 0.02 0.01 0.01 0.01 0.01 0.01 0.01 0.02 0.01 0.01 0.01
0.03 0.02 0.02 0.02 0.02 0.03 0.03 0.03 0.03 0.03 0.04 0.04 0.04 0.04 0.04 0.04 0.03 0.03 0.04 0.05 0.05 0.04 0.03 0.03 0.03 0.02 0.02 0.02 0.02 0.03 0.03 0.03 0.02 0.02 0.02 0.02 0.02 0.02 0.02 0.02 0.01 0.01 0.01
0.03 0.03 0.03 0.03 0.03 0.03 0.03 0.03 0.03 0.03 0.04 0.04 0.03 0.03 0.03 0.03 0.04 0.03 0.03 0.03 0.03 0.03 0.03 0.03 0.02 0.02 0.02 0.03 0.03 0.03 0.03 0.03 0.02 0.02 0.01 0.02 0.01 0.02 0.02 0.02 0.02 0.02 0.02
0.04 0.04 0.04 0.03 0.03 0.02 0.03 0.03 0.03 0.03 0.03 0.02 0.02 0.02 0.02 0.02 0.03 0.03 0.03 0.03 0.03 0.03 0.03 0.03 0.03 0.03 0.03 0.03 0.03 0.03 0.03 0.03 0.03 0.02 0.01 0.02 0.02 0.01 0.02 0.02 0.02 0.02 0.02
MSLP
1014.64 1014.47 1014.30 1014.15 1014.02 1013.91 1013.80 1013.67 1013.48 1013.22 1012.88 1012.48 1012.06 1011.65 1011.31 1011.08 1010.99 1011.07 1011.29 1011.61 1012.01 1012.42 1012.83 1013.21 1013.56 1013.89 1014.21 1014.54 1014.90 1015.28 1015.66 1016.01 1016.31 1016.52 1016.62 1016.62 1016.51 1016.32 1016.08 1015.81 1015.54 1015.26 1014.99
1014.69 1014.52 1014.35 1014.18 1014.04 1013.91 1013.78 1013.63 1013.44 1013.17 1012.83 1012.44 1012.01 1011.59 1011.24 1011.00 1010.89 1010.94 1011.14 1011.44 1011.81 1012.22 1012.62 1012.99 1013.34 1013.67 1014.01 1014.36 1014.74 1015.14 1015.55 1015.94 1016.26 1016.51 1016.64 1016.66 1016.58 1016.41 1016.19 1015.93 1015.66 1015.38 1015.10
1014.77 1014.60 1014.41 1014.23 1014.07 1013.92 1013.76 1013.59 1013.38 1013.11 1012.77 1012.37 1011.95 1011.54 1011.18 1010.93 1010.80 1010.83 1011.00 1011.27 1011.62 1012.01 1012.40 1012.78 1013.14 1013.49 1013.83 1014.20 1014.60 1015.02 1015.45 1015.86 1016.21 1016.47 1016.63 1016.68 1016.62 1016.47 1016.27 1016.02 1015.77 1015.50 1015.21
1014.84 1014.68 1014.49 1014.30 1014.12 1013.93 1013.75 1013.55 1013.31 1013.02 1012.68 1012.28 1011.86 1011.46 1011.10 1010.84 1010.70 1010.70 1010.84 1011.08 1011.41 1011.78 1012.17 1012.55 1012.93 1013.30 1013.67 1014.06 1014.48 1014.92 1015.36 1015.78 1016.14 1016.41 1016.59 1016.66 1016.62 1016.51 1016.33 1016.10 1015.86 1015.59 1015.31
1014.91 1014.76 1014.58 1014.38 1014.17 1013.96 1013.74 1013.51 1013.24 1012.93 1012.57 1012.17 1011.75 1011.34 1010.99 1010.72 1010.56 1010.53 1010.63 1010.85 1011.14 1011.50 1011.88 1012.27 1012.66 1013.06 1013.47 1013.89 1014.34 1014.80 1015.25 1015.68 1016.05 1016.34 1016.54 1016.62 1016.61 1016.52 1016.37 1016.17 1015.94 1015.68 1015.39
1014.95 1014.82 1014.65 1014.46 1014.24 1014.00 1013.75 1013.47 1013.17 1012.83 1012.45 1012.04 1011.62 1011.21 1010.84 1010.56 1010.37 1010.31 1010.37 1010.54 1010.80 1011.13 1011.50 1011.90 1012.31 1012.74 1013.19 1013.66 1014.14 1014.63 1015.11 1015.56 1015.95 1016.26 1016.47 1016.58 1016.60 1016.54 1016.41 1016.23 1016.01 1015.76 1015.47
1014.95 1014.86 1014.71 1014.53 1014.30 1014.05 1013.77 1013.46 1013.11 1012.74 1012.33 1011.91 1011.48 1011.06 1010.69 1010.38 1010.17 1010.06 1010.07 1010.19 1010.40 1010.68 1011.03 1011.43 1011.86 1012.33 1012.82 1013.33 1013.86 1014.39 1014.91 1015.40 1015.82 1016.16 1016.41 1016.56 1016.62 1016.59 1016.49 1016.33 1016.12 1015.86 1015.57
1014.92 1014.86 1014.75 1014.59 1014.38 1014.11 1013.81 1013.47 1013.09 1012.68 1012.26 1011.81 1011.37 1010.95 1010.57 1010.24 1009.99 1009.83 1009.78 1009.82 1009.97 1010.20 1010.51 1010.89 1011.32 1011.81 1012.34 1012.90 1013.48 1014.07 1014.64 1015.18 1015.66 1016.06 1016.36 1016.56 1016.66 1016.68 1016.61 1016.47 1016.27 1016.01 1015.70
1014.83 1014.83 1014.76 1014.63 1014.44 1014.18 1013.87 1013.50 1013.10 1012.67 1012.23 1011.78 1011.33 1010.91 1010.52 1010.17 1009.89 1009.68 1009.56 1009.52 1009.58 1009.74 1009.99 1010.32 1010.74 1011.23 1011.78 1012.38 1013.02 1013.67 1014.31 1014.91 1015.46 1015.93 1016.31 1016.58 1016.75 1016.81 1016.78 1016.67 1016.47 1016.21 1015.88
1014.71 1014.76 1014.74 1014.66 1014.49 1014.25 1013.93 1013.56 1013.14 1012.70 1012.25 1011.80 1011.37 1010.96 1010.58 1010.22 1009.92 1009.66 1009.47 1009.35 1009.32 1009.38 1009.55 1009.81 1010.18 1010.65 1011.21 1011.83 1012.51 1013.21 1013.92 1014.60 1015.23 1015.79 1016.26 1016.61 1016.86 1016.99 1017.01 1016.92 1016.73 1016.46 1016.12
1014.58 1014.67 1014.70 1014.65 1014.51 1014.28 1013.97 1013.59 1013.17 1012.74 1012.30 1011.88 1011.48 1011.10 1010.74 1010.40 1010.09 1009.80 1009.54 1009.34 1009.21 1009.17 1009.24 1009.42 1009.72 1010.14 1010.68 1011.30 1012.00 1012.75 1013.51 1014.26 1014.98 1015.62 1016.18 1016.63 1016.97 1017.17 1017.25 1017.20 1017.03 1016.75 1016.39
1014.44 1014.57 1014.63 1014.60 1014.48 1014.26 1013.95 1013.58 1013.17 1012.74 1012.34 1011.96 1011.61 1011.29 1010.98 1010.67 1010.37 1010.06 1009.76 1009.49 1009.26 1009.12 1009.08 1009.16 1009.38 1009.74 1010.23 1010.83 1011.54 1012.30 1013.11 1013.92 1014.70 1015.43 1016.08 1016.63 1017.05 1017.33 1017.47 1017.47 1017.33 1017.06 1016.69
1014.34 1014.47 1014.54 1014.52 1014.39 1014.17 1013.85 1013.48 1013.08 1012.69 1012.32 1012.00 1011.72 1011.47 1011.22 1010.97 1010.69 1010.38 1010.04 1009.71 1009.41 1009.18 1009.04 1009.02 1009.15 1009.44 1009.88 1010.45 1011.14 1011.91 1012.74 1013.59 1014.43 1015.23 1015.95 1016.58 1017.09 1017.45 1017.66 1017.72 1017.61 1017.37 1017.00
1014.29 1014.41 1014.45 1014.40 1014.25 1014.00 1013.66 1013.29 1012.90 1012.53 1012.22 1011.96 1011.75 1011.57 1011.39 1011.19 1010.94 1010.64 1010.28 1009.91 1009.55 1009.23 1009.02 1008.93 1008.99 1009.22 1009.61 1010.15 1010.82 1011.59 1012.42 1013.30 1014.17 1015.02 1015.80 1016.50 1017.08 1017.52 1017.80 1017.92 1017.86 1017.65 1017.31
1014.31 1014.38 1014.37 1014.27 1014.06 1013.77 1013.40 1013.01 1012.62 1012.28 1012.01 1011.80 1011.66 1011.54 1011.42 1011.25 1011.02 1010.72 1010.35 1009.94 1009.53 1009.17 1008.90 1008.76 1008.79 1008.99 1009.36 1009.89 1010.55 1011.32 1012.16 1013.05 1013.94 1014.82 1015.65 1016.40 1017.04 1017.54 1017.90 1018.07 1018.07 1017.91 1017.61
1014.40 1014.41 1014.33 1014.15 1013.87 1013.52 1013.11 1012.69 1012.30 1011.96 1011.71 1011.54 1011.43 1011.34 1011.24 1011.09 1010.85 1010.53 1010.13 1009.69 1009.24 1008.85 1008.56 1008.41 1008.44 1008.66 1009.05 1009.60 1010.29 1011.08 1011.94 1012.84 1013.76 1014.65 1015.51 1016.29 1016.98 1017.54 1017.95 1018.19 1018.26 1018.16 1017.90
1014.55 1014.48 1014.32 1014.06 1013.71 1013.29 1012.83 1012.38 1011.97 1011.64 1011.39 1011.22 1011.10 1011.00 1010.86 1010.67 1010.38 1010.00 1009.55 1009.06 1008.58 1008.17 1007.89 1007.78 1007.85 1008.13 1008.59 1009.22 1009.97 1010.82 1011.73 1012.66 1013.61 1014.52 1015.40 1016.21 1016.93 1017.53 1017.99 1018.30 1018.43 1018.39 1018.19
1014.74 1014.60 1014.36 1014.03 1013.60 1013.13 1012.63 1012.14 1011.72 1011.36 1011.09 1010.89 1010.72 1010.55 1010.34 1010.04 1009.65 1009.17 1008.62 1008.06 1007.54 1007.13 1006.87 1006.82 1006.98 1007.37 1007.95 1008.69 1009.56 1010.51 1011.49 1012.49 1013.47 1014.42 1015.32 1016.15 1016.89 1017.53 1018.04 1018.39 1018.58 1018.60 1018.47
1014.93 1014.74 1014.44 1014.05 1013.58 1013.06 1012.54 1012.03 1011.58 1011.21 1010.89 1010.62 1010.37 1010.08 1009.73 1009.28 1008.74 1008.11 1007.44 1006.78 1006.21 1005.78 1005.56 1005.58 1005.85 1006.37 1007.10 1008.00 1009.02 1010.10 1011.19 1012.28 1013.32 1014.31 1015.24 1016.10 1016.87 1017.53 1018.08 1018.48 1018.73 1018.81 1018.73
1015.08 1014.87 1014.54 1014.12 1013.63 1013.10 1012.57 1012.06 1011.60 1011.19 1010.82 1010.47 1010.09 1009.66 1009.14 1008.50 1007.77 1006.97 1006.14 1005.37 1004.72 1004.27 1004.07 1004.16 1004.54 1005.21 1006.10 1007.16 1008.34 1009.57 1010.80 1011.99 1013.12 1014.17 1015.14 1016.03 1016.83 1017.52 1018.10 1018.55 1018.84 1018.98 1018.97
1015.18 1014.97 1014.65 1014.23 1013.75 1013.24 1012.73 1012.23 1011.76 1011.32 1010.90 1010.45 1009.95 1009.36 1008.65 1007.82 1006.90 1005.90 1004.92 1004.02 1003.28 1002.79 1002.59 1002.73 1003.20 1003.98 1005.01 1006.23 1007.55 1008.93 1010.29 1011.59 1012.82 1013.94 1014.98 1015.91 1016.74 1017.48 1018.09 1018.58 1018.93 1019.12 1019.16
1015.22 1015.04 1014.74 1014.36 1013.92 1013.45 1012.96 1012.49 1012.03 1011.57 1011.10 1010.57 1009.95 1009.22 1008.35 1007.35 1006.24 1005.08 1003.95 1002.92 1002.10 1001.55 1001.33 1001.48 1001.99 1002.84 1003.96 1005.28 1006.72 1008.20 1009.67 1011.08 1012.40 1013.61 1014.71 1015.70 1016.58 1017.36 1018.02 1018.56 1018.95 1019.20 1019.30
1015.20 1015.07 1014.82 1014.49 1014.10 1013.68 1013.24 1012.80 1012.36 1011.90 1011.39 1010.80 1010.10 1009.27 1008.28 1007.15 1005.92 1004.63 1003.39 1002.26 1001.35 1000.74 1000.47 1000.59 1001.09 1001.94 1003.07 1004.43 1005.91 1007.45 1008.99 1010.47 1011.86 1013.14 1014.31 1015.37 1016.32 1017.15 1017.87 1018.46 1018.91 1019.22 1019.38
1015.15 1015.08 1014.89 1014.62 1014.29 1013.92 1013.53 1013.13 1012.70 1012.25 1011.73 1011.12 1010.38 1009.50 1008.46 1007.27 1005.98 1004.64 1003.34 1002.16 1001.19 1000.51 1000.17 1000.21 1000.63 1001.40 1002.47 1003.77 1005.22 1006.75 1008.30 1009.80 1011.24 1012.58 1013.81 1014.94 1015.95 1016.85 1017.63 1018.28 1018.80 1019.17 1019.39
1015.11 1015.09 1014.96 1014.75 1014.47 1014.14 1013.79 1013.42 1013.02 1012.58 1012.08 1011.48 1010.75 1009.89 1008.86 1007.70 1006.44 1005.12 1003.82 1002.64 1001.63 1000.89 1000.47 1000.40 1000.69 1001.32 1002.24 1003.41 1004.74 1006.18 1007.66 1009.14 1010.58 1011.95 1013.23 1014.42 1015.50 1016.47 1017.31 1018.03 1018.60 1019.04 1019.32
1015.10 1015.13 1015.05 1014.88 1014.64 1014.35 1014.03 1013.69 1013.31 1012.90 1012.43 1011.87 1011.20 1010.40 1009.47 1008.40 1007.23 1006.01 1004.78 1003.64 1002.64 1001.86 1001.35 1001.14 1001.26 1001.70 1002.42 1003.38 1004.52 1005.81 1007.17 1008.57 1009.97 1011.33 1012.64 1013.86 1015.00 1016.02 1016.93 1017.71 1018.34 1018.82 1019.16
Thickness
5653 5653 5652 5652 5651 5650 5650 5650 5650 5651 5651 5650 5650 5650 5649 5649 5648 5647 5646 5644 5643 5643 5643 5643 5643 5642 5641 5640 5639 5638 5637 5636 5634 5633 5632 5630 5629 5628 5627 5626 5625 5624 5623
5645 5645 5644 5644 5643 5642 5642 5642 5642 5642 5643 5642 5642 5642 5642 5642 5641 5640 5639 5638 5636 5636 5636 5636 5635 5635 5634 5634 5633 5631 5630 5629 5627 5626 5625 5623 5622 5621 5620 5618 5617 5616 5616
5637 5636 5635 5635 5634 5634 5634 5634 5634 5634 5634 5634 5634 5634 5634 5634 5634 5633 5632 5631 5630 5629 5628 5628 5628 5627 5627 5626 5625 5624 5623 5621 5620 5619 5617 5616 5614 5613 5612 5611 5610 5609 5609
5628 5628 5627 5626 5625 5626 5626 5626 5626 5626 5626 5626 5626 5626 5626 5626 5626 5625 5625 5624 5623 5622 5621 5620 5619 5619 5619 5618 5617 5616 5615 5614 5612 5611 5609 5608 5607 5606 5605 5604 5603 5602 5601
5619 5619 5618 5617 5617 5617 5617 5617 5617 5618 5618 5617 5618 5618 5618 5618 5618 5617 5617 5616 5616 5615 5614 5613 5612 5611 5610 5610 5609 5608 5607 5606 5604 5603 5601 5600 5599 5598 5596 5595 5594 5594 5593
5610 5610 5610 5609 5608 5608 5608 5608 5608 5608 5608 5608 5609 5609 5609 5610 5609 5609 5609 5608 5608 5607 5606 5605 5604 5603 5601 5600 5600 5599 5598 5597 5595 5594 5593 5591 5590 5589 5588 5587 5586 5585 5584
5602 5601 5601 5601 5600 5600 5599 5599 5598 5598 5599 5598 5600 5601 5602 5602 5602 5601 5601 5600 5600 5599 5597 5596 5595 5594 5593 5591 5590 5589 5588 5587 5585 5584 5583 5582 5581 5580 5579 5578 5577 5576 5575
5591 5591 5591 5591 5590 5590 5589 5588 5588 5589 5589 5589 5590 5592 5595 5596 5595 5593 5592 5591 5591 5590 5588 5587 5586 5584 5583 5582 5581 5579 5577 5576 5575 5574 5573 5572 5571 5570 5569 5568 5567 5567 5566
5581 5580 5580 5581 5580 5581 5580 5580 5579 5579 5580 5579 5579 5581 5585 5590 5588 5586 5584 5582 5580 5579 5579 5577 5576 5575 5573 5572 5571 5569 5567 5566 5564 5563 5562 5561 5561 5560 5560 5559 5558 5557 5556
5571 5570 5570 5570 5570 5570 5570 5570 5570 5570 5570 5570 5570 5569 5570 5572 5573 5576 5576 5572 5570 5568 5567 5567 5566 5564 5563 5562 5560 5558 5556 5555 5553 5552 5552 5551 5550 5550 5549 5548 5547 5546 5545
5561 5560 5560 5560 5560 5560 5560 5560 5560 5560 5560 5561 5560 5559 5558 5557 5559 5562 5566 5565 5561 5559 5558 5556 5555 5554 5552 5551 5550 5548 5546 5544 5542 5541 5541 5540 5539 5539 5538 5537 5537 5536 5535
5551 5550 5549 5549 5549 5549 5549 5549 5549 5550 5550 5549 5549 5549 5548 5549 5549 5549 5551 5552 5551 5550 5548 5546 5545 5543 5542 5540 5539 5537 5535 5533 5532 5530 5530 5529 5528 5527 5527 5527 5526 5525 5524
5541 5541 5540 5539 5539 5539 5538 5538 5538 5538 5539 5538 5538 5538 5537 5538 5537 5537 5537 5538 5538 5538 5537 5536 5534 5532 5531 5529 5528 5526 5525 5523 5521 5519 5519 5518 5517 5517 5517 5516 5515 5515 5514
5530 5530 5530 5530 5529 5528 5528 5527 5527 5527 5528 5528 5527 5527 5526 5526 5525 5525 5525 5524 5525 5528 5527 5527 5524 5521 5519 5518 5517 5515 5514 5512 5510 5510 5509 5508 5507 5507 5506 5506 5506 5505 5505
5518 5519 5520 5519 5519 5518 5517 5517 5517 5517 5517 5517 5517 5516 5516 5516 5514 5514 5513 5512 5513 5517 5520 5518 5514 5511 5508 5506 5505 5503 5503 5502 5501 5500 5498 5498 5497 5497 5497 5497 5497 5497 5497
5507 5508 5509 5508 5508 5507 5507 5507 5507 5507 5506 5506 5506 5505 5505 5505 5504 5503 5502 5502 5501 5503 5506 5507 5503 5500 5497 5495 5493 5492 5492 5491 5491 5490 5489 5489 5489 5489 5489 5488 5488 5488 5488
5495 5496 5497 5497 5497 5497 5496 5496 5496 5496 5496 5495 5494 5494 5494 5494 5494 5493 5492 5491 5491 5491 5492 5494 5492 5490 5487 5485 5484 5482 5482 5482 5483 5482 5481 5481 5481 5481 5480 5480 5480 5480 5480
5483 5484 5485 5485 5485 5485 5484 5484 5484 5484 5485 5485 5484 5484 5484 5484 5483 5482 5482 5482 5482 5481 5481 5482 5481 5479 5477 5475 5474 5473 5473 5473 5474 5474 5473 5473 5473 5472 5473 5473 5473 5473 5473
5471 5472 5472 5473 5473 5473 5473 5473 5473 5473 5473 5474 5474 5474 5475 5474 5474 5472 5472 5472 5472 5470 5469 5469 5470 5469 5468 5466 5465 5465 5464 5465 5465 5466 5466 5466 5466 5465 5466 5466 5466 5466 5466
5459 5460 5460 5460 5460 5461 5461 5461 5462 5462 5463 5462 5462 5463 5464 5464 5464 5463 5462 5462 5461 5460 5459 5459 5459 5459 5458 5457 5456 5456 5457 5457 5459 5459 5459 5459 5459 5459 5459 5460 5460 5459 5458
5446 5447 5448 5449 5449 5449 5450 5450 5450 5451 5451 5452 5452 5452 5454 5453 5453 5453 5452 5453 5452 5451 5450 5450 5450 5450 5449 5448 5449 5448 5448 5450 5451 5451 5451 5452 5452 5453 5453 5453 5452 5451 5450
5434 5435 5437 5437 5438 5439 5439 5439 5439 5440 5440 5441 5442 5442 5443 5442 5443 5443 5443 5443 5442 5442 5443 5442 5443 5442 5442 5441 5440 5439 5439 5441 5443 5444 5442 5444 5444 5445 5446 5446 5445 5444 5443
5423 5424 5425 5426 5427 5428 5428 5428 5428 5428 5430 5431 5431 5432 5433 5433 5433 5434 5434 5433 5432 5431 5431 5433 5434 5435 5434 5434 5432 5432 5432 5433 5434 5434 5433 5436 5437 5438 5438 5438 5437 5436 5435
5413 5414 5415 5416 5417 5418 5417 5417 5418 5419 5420 5420 5421 5422 5423 5424 5424 5425 5425 5425 5425 5425 5425 5424 5424 5425 5425 5425 5424 5424 5424 5424 5425 5426 5424 5426 5429 5430 5430 5430 5429 5428 5427
5402 5403 5404 5405 5407 5406 5406 5408 5409 5410 5411 5411 5412 5413 5414 5414 5414 5414 5416 5417 5418 5418 5416 5416 5416 5416 5416 5416 5415 5416 5416 5417 5420 5420 5417 5417 5421 5422 5423 5423 5422 5421 5420
5391 5392 5393 5395 5395 5396 5398 5399 5400 5401 5402 5403 5404 5404 5404 5405 5405 5405 5407 5409 5410 5410 5409 5409 5409 5409 5409 5409 5408 5408 5408 5410 5411 5412 5411 5410 5412 5412 5414 5416 5415 5415 5414